Regional Weather Roundup
Issued by NWS

Home | Current Version | Previous Version | Graphics & Text | Print | Product List | Glossary On
Versions: 1 2 3 4 5 6 7 8 9 10 11 12 13 14 15 16 17 18 19 20 21 22 23 24 25 26 27 28 29 30 31 32 33 34 35 36 37 38 39 40 41 42 43 44 45 46 47 48 49 50
000
ASUS43 KFSD 100510
RWRSD

WEATHER ROUNDUP FOR SOUTH DAKOTA
NATIONAL WEATHER SERVICE SIOUX FALLS SD
1100 PM CST FRI DEC 09 2016

NOTE: "FAIR" INDICATES FEW OR NO CLOUDS BELOW 12,000 FEET WITH NO
SIGNIFICANT WEATHER AND/OR OBSTRUCTIONS TO VISIBILITY.


SDZ001>005-009-010-012>017-100600-
NORTHWEST AND NORTH CENTRAL SOUTH DAKOTA

CITY           SKY/WX    TMP DP  RH WIND       PRES   REMARKS
BUFFALO          N/A     -4  -8  83 SE7       30.20S WCI -18
FAITH            N/A     -6  -8  91 E7        30.37F WCI -20
MOBRIDGE       CLOUDY    -5 -11  75 NW5       30.46F WCI -16
$$

SDZ012>016-024>037-041>051-057-063-072>074-100600-
SOUTHWEST AND SOUTH CENTRAL SOUTH DAKOTA

CITY           SKY/WX    TMP DP  RH WIND       PRES   REMARKS
RAPID CTY ARPT CLOUDY     2  -3  80 S9        30.28S WCI -13
PIERRE         CLOUDY    -4 -10  75 N9        30.48S WCI -20
CUSTER         CLOUDY     5  -2  72 W3        30.02F
ELLSWORTH AFB  CLOUDY     2  -3  81 SE10      30.26  WCI -14
PHILIP         CLOUDY     1  -3  83 SE3       30.43F
PINE RIDGE     LGT SNOW   4   1  88 E6        30.27F FOG     WCI  -7
SPEARFISH      CLOUDY     0  -6  78 CALM      30.16F
WINNER         CLOUDY     7   3  84 NE5       30.44S WCI  -2
$$

SDZ004>011-016>023-039-040-100600-
NORTHEAST SOUTH DAKOTA

CITY           SKY/WX    TMP DP  RH WIND       PRES   REMARKS
ABERDEEN       CLOUDY    -5 -12  72 N8        30.54S WCI -20
WATERTOWN      CLOUDY     1  -4  79 CALM      30.46S
BROOKINGS      FLURRIES   4  -1  80 N7        30.47S WCI  -8
SISSETON         N/A     -5  -9  83 N7        30.54S WCI -19
$$

SDZ017-020-022-023-036>040-048>070-100600-
SOUTHEAST SOUTH DAKOTA

CITY           SKY/WX    TMP DP  RH WIND       PRES   REMARKS
SIOUX FALLS    FLURRIES  12   9  87 NE6       30.48S WCI   3
HURON          CLOUDY     5   1  83 N3        30.53R
CHAMBERLAIN    CLOUDY     7   2  82 CALM      30.49R
MITCHELL       CLOUDY     7   2  80 N7        30.53R WCI  -5
YANKTON        CLOUDY    14  10  85 N3        30.48S
$$

ABBREVIATIONS USED IN REMARKS
   TC - TEMPERATURE IN CELSIUS
  WCI - WIND CHILL INDEX
   HX - HEAT INDEX
  VSB - VISIBILITY




USA.gov is the U.S. government's official web portal to all federal, state and local government web resources and services.